Theta_e
346 347 348 348 349 351 349 351 345 346 349 350 349 350 351 352 353 354 358 357 357 357 355 354 354 353 350 348 347 345 343 344 344 349 350 350 349 348 348 347 348 349 350
348 347 347 348 349 351 352 352 352 348 351 350 350 351 352 352 352 353 357 357 357 356 354 356 354 352 346 347 345 341 340 341 343 343 348 351 345 345 347 348 347 347 344
349 347 347 348 348 349 352 352 354 353 353 351 352 354 355 356 355 354 354 356 355 354 355 357 354 351 345 342 340 340 341 338 340 343 346 352 354 345 345 344 342 341 341
349 347 345 346 346 348 349 352 353 355 356 354 352 354 353 352 352 353 351 355 354 355 358 357 354 348 343 342 341 340 338 341 336 338 340 343 347 345 347 343 341 339 339
349 349 348 345 344 345 347 349 352 355 355 356 354 354 355 351 353 353 354 355 356 358 357 354 351 347 343 344 345 344 343 340 337 334 337 341 339 340 339 341 341 340 337
348 349 348 347 347 346 347 349 352 355 356 356 357 355 354 354 353 354 354 349 351 356 355 352 350 347 345 345 346 345 344 341 338 335 335 337 338 338 337 336 339 340 341
349 349 350 349 348 348 348 349 351 356 356 356 356 356 356 357 356 355 350 348 351 353 354 352 349 346 345 347 347 345 344 340 337 337 332 333 335 336 335 333 334 338 338
349 349 350 349 349 349 349 350 351 356 356 356 356 357 358 355 355 355 351 352 350 352 354 352 348 348 346 347 346 343 340 338 335 336 335 331 333 332 332 333 332 335 335
352 350 349 349 349 349 350 350 351 355 356 355 357 358 358 356 354 353 355 352 353 353 354 351 348 348 347 347 345 342 339 335 333 330 330 328 328 328 329 329 329 330 332
352 351 351 349 348 349 350 351 351 355 355 354 356 357 357 357 356 356 357 355 356 353 353 350 348 348 348 346 344 340 337 333 327 326 329 327 326 324 324 325 326 326 327
346 346 347 348 348 349 350 350 351 352 354 353 354 355 356 356 356 355 358 358 355 355 352 348 347 348 347 346 342 338 334 329 327 326 325 323 323 321 321 322 325 325 326
343 346 347 348 348 348 349 350 350 351 352 352 354 355 355 354 354 354 357 357 355 353 351 348 347 347 346 344 340 332 328 325 325 322 322 321 320 320 319 319 321 322 324
346 346 347 348 348 348 350 350 351 351 351 351 353 353 355 355 354 356 356 356 354 352 351 349 348 345 341 337 332 327 324 324 322 321 322 322 323 322 322 321 319 319 319
348 348 347 348 348 349 353 353 353 352 352 351 353 353 356 355 355 357 357 356 354 352 351 350 347 343 339 336 328 318 322 322 321 322 322 323 322 323 324 324 324 324 320
361 360 358 355 350 351 354 355 355 355 354 355 355 354 355 353 355 356 356 355 354 352 349 347 347 344 341 330 323 314 319 319 321 323 323 323 323 323 323 322 324 324 321
355 360 363 364 358 350 353 355 356 358 358 358 358 357 358 357 355 356 356 355 352 350 348 345 345 341 332 330 321 312 316 321 322 323 323 319 314 316 316 317 319 324 325
346 346 351 356 361 351 351 354 357 358 359 358 348 357 358 358 357 356 355 354 349 347 345 345 344 342 337 330 319 315 320 321 323 323 320 318 319 321 321 317 318 318 317
348 348 344 347 356 358 351 354 356 358 359 358 355 357 359 358 356 355 354 352 348 346 346 345 343 341 336 327 319 315 320 321 321 320 320 320 322 323 323 324 324 325 324
345 345 344 345 356 360 361 358 358 357 358 356 355 354 355 356 354 355 353 350 347 347 347 345 342 341 337 328 317 315 319 320 320 321 321 322 323 319 316 325 325 325 325
345 347 348 348 348 360 362 363 362 361 360 359 358 357 355 354 353 353 350 347 347 346 347 344 342 340 335 322 317 317 316 319 321 323 323 321 324 318 315 323 324 324 324
342 346 349 354 355 362 363 364 364 364 362 362 362 362 361 355 353 347 343 342 344 345 344 342 341 338 333 321 317 316 317 318 321 322 323 321 318 317 314 314 322 325 323
342 346 350 353 356 362 364 364 364 364 364 363 363 360 358 352 345 341 340 341 343 339 338 340 338 336 333 326 319 315 320 318 321 321 322 322 321 315 313 314 318 319 319
341 345 351 350 351 355 359 360 362 365 364 363 357 355 352 345 341 341 340 337 338 331 332 336 336 335 333 327 320 317 317 320 323 323 322 322 317 314 314 314 315 318 321
339 342 348 350 351 352 354 356 360 360 361 358 350 345 342 340 341 340 337 333 332 333 333 334 335 334 332 328 322 320 317 317 321 321 319 318 316 317 318 319 318 321 322
339 341 345 350 353 352 354 355 356 356 356 351 345 343 343 342 342 341 336 331 333 334 333 334 334 333 332 328 322 318 317 319 321 319 318 316 317 318 320 322 322 323 322
341 341 342 347 351 352 355 353 353 354 351 349 344 342 343 343 342 336 334 333 334 333 333 335 334 332 332 325 321 317 318 321 318 318 318 317 317 318 318 321 322 323 322
Wind_Speed
21 25 23 22 19 18 17 17 18 17 16 15 13 12 11 9 8 7 5 5 6 6 4 2 2 1 1 2 2 2 2 2 4 2 2 6 7 6 5 4 4 4 6
18 22 24 23 22 21 20 19 19 20 19 16 15 12 10 9 9 9 8 8 8 7 5 5 3 3 1 1 2 2 2 1 4 4 3 2 6 7 6 6 7 6 7
18 19 24 24 23 22 22 23 23 21 21 18 15 12 10 9 9 10 10 8 8 5 6 5 4 3 2 1 2 3 3 2 1 3 4 1 2 10 3 5 6 6 7
19 18 21 24 24 24 22 22 22 22 21 21 19 18 15 12 10 8 8 8 8 7 6 6 4 3 2 4 4 4 5 4 2 2 1 3 6 2 5 4 5 7 7
21 20 19 24 25 23 21 20 21 23 23 23 23 19 17 13 10 8 8 8 7 7 7 7 7 5 4 4 4 4 4 4 4 3 2 2 1 2 5 2 8 5 5
20 21 24 22 21 21 20 19 20 23 22 21 21 21 16 15 9 6 7 8 7 7 8 9 7 7 6 5 4 4 4 4 4 3 2 1 3 3 4 3 2 2 4
17 19 20 21 21 21 22 22 21 22 22 22 21 21 20 17 13 11 10 10 9 9 11 10 9 8 7 6 5 5 4 4 3 3 2 2 2 0 2 5 2 4 3
12 16 18 20 22 22 23 23 23 22 22 23 22 21 21 19 17 13 11 12 10 10 12 12 11 9 9 7 6 4 3 4 3 3 3 2 2 2 1 1 3 3 5
8 11 14 21 23 24 24 23 23 23 25 24 21 21 21 20 19 17 15 14 13 12 14 13 12 12 11 9 8 5 5 4 3 3 3 3 3 2 2 2 3 6 2
6 7 9 15 19 23 24 24 23 24 25 23 21 21 21 19 18 16 15 13 12 14 16 18 13 11 11 11 9 7 5 5 4 4 5 4 4 4 4 4 3 2 4
5 6 6 10 14 17 19 23 23 21 22 24 23 21 21 22 21 19 17 15 15 16 17 20 20 14 12 9 8 8 7 7 7 7 7 7 5 5 5 5 4 5 3
1 4 5 7 11 15 18 20 21 22 24 25 23 23 23 22 22 23 21 18 18 17 17 18 20 16 12 10 9 10 9 10 9 9 8 8 7 7 7 8 8 7 5
4 3 5 6 8 13 18 21 22 23 23 24 24 25 24 23 21 20 19 19 19 19 17 18 18 16 16 13 11 11 14 11 11 9 8 8 7 7 8 7 6 7 6
5 4 3 5 10 13 18 20 21 23 23 25 25 25 24 23 22 21 20 21 20 19 18 17 16 16 15 13 12 13 16 13 11 10 9 8 7 7 7 7 7 6 7
9 7 6 2 5 11 16 19 20 23 22 20 19 19 20 19 21 19 20 20 20 19 18 17 16 16 16 15 16 15 17 16 14 11 10 9 8 9 6 7 8 6 5
9 9 8 6 0 11 15 17 18 20 19 22 23 22 20 21 22 22 22 21 20 19 18 20 18 17 17 17 16 16 16 13 13 13 10 10 10 10 10 10 8 6 6
5 6 8 8 8 4 12 15 17 20 24 26 30 26 20 21 22 23 24 21 21 21 23 21 20 20 17 16 16 17 13 14 13 12 13 11 10 9 7 5 4 3 2
6 5 5 7 7 3 6 11 17 21 23 23 17 18 19 20 21 24 25 23 22 23 22 21 18 20 16 21 19 20 14 13 13 13 12 11 10 7 5 3 2 1 1
6 5 6 6 3 4 4 8 14 21 24 25 20 21 21 21 22 22 22 20 20 19 19 19 20 20 17 22 23 21 16 15 13 12 10 9 9 7 4 2 1 0 0
8 8 7 5 4 3 4 7 11 17 21 23 25 24 21 20 22 22 20 18 13 14 14 15 18 20 18 26 26 21 16 16 14 12 10 12 8 7 3 1 1 2 2
11 12 9 7 2 2 4 7 10 14 14 17 20 23 25 29 29 32 32 27 10 3 7 13 17 19 18 27 28 25 17 17 15 14 13 11 11 8 6 5 5 5 4
12 12 11 8 4 2 5 8 10 10 12 14 14 18 25 30 39 41 38 37 36 23 4 10 16 18 18 23 30 28 19 17 16 12 10 9 11 11 8 5 9 8 6
10 10 10 12 7 4 6 9 9 9 12 14 17 28 35 40 41 37 40 35 39 28 21 20 19 20 20 21 29 29 22 18 12 10 9 11 13 10 8 8 9 7 7
9 10 12 13 13 10 9 9 8 9 9 15 22 27 33 36 38 35 32 22 27 32 42 40 30 23 23 23 24 25 25 20 15 10 10 12 11 10 8 8 7 7 8
13 11 12 13 13 12 10 8 6 6 12 19 23 26 25 31 30 28 28 31 36 42 33 34 36 29 28 27 29 31 26 20 17 14 13 13 13 12 10 9 7 7 7
15 15 17 15 13 10 9 6 2 4 9 17 19 22 23 25 23 21 22 27 29 38 40 44 36 36 28 29 31 31 26 21 19 17 14 15 14 13 11 9 7 7 7
Wind_Direction
200 197 200 200 201 203 202 200 201 200 195 200 207 214 220 226 227 230 227 222 208 206 223 201 204 267 300 352 345 316 307 343 348 282 137 91 95 87 88 79 77 70 55
203 197 196 200 202 202 206 207 204 201 201 202 208 217 222 225 227 230 232 223 209 211 201 195 184 173 241 354 348 331 293 282 5 327 188 133 137 92 73 68 65 66 66
202 195 194 197 202 203 205 209 210 204 203 205 204 206 212 223 230 236 235 226 212 217 197 193 189 170 165 73 49 33 359 337 25 13 308 258 119 156 91 84 82 83 73
204 203 195 196 201 206 206 211 212 208 207 205 208 211 216 226 228 232 220 216 209 204 199 186 175 165 141 115 88 58 45 343 359 282 356 340 333 273 171 140 103 76 70
204 204 202 196 199 202 203 208 210 208 206 208 212 214 225 231 230 225 211 213 203 194 184 172 163 160 151 132 112 93 66 39 5 346 308 337 285 327 303 176 159 131 73
205 198 205 198 199 199 200 202 205 206 204 205 212 217 220 224 226 221 212 220 210 187 178 172 167 167 158 147 125 96 70 55 61 51 41 338 324 350 303 285 275 331 109
196 201 196 199 198 197 197 199 201 204 201 204 208 211 212 211 215 213 212 212 207 204 185 178 180 178 169 154 138 116 94 68 61 58 69 98 102 350 329 302 337 283 114
188 199 199 203 202 202 201 198 197 200 200 203 206 206 208 208 215 214 204 205 208 205 185 181 180 177 167 165 151 129 109 94 84 62 48 79 91 77 54 323 294 213 178
175 191 200 201 203 203 204 204 198 198 200 202 202 204 206 206 210 212 206 206 206 194 178 180 182 180 175 169 159 148 122 97 91 80 59 58 60 52 48 16 334 321 302
162 188 197 211 206 210 201 200 206 202 199 199 203 204 205 205 209 210 209 207 195 181 180 176 182 189 181 171 161 138 125 113 100 94 86 70 62 60 53 51 48 31 324
168 193 196 200 214 211 206 202 203 201 200 200 203 204 201 203 201 203 206 198 187 184 186 185 174 184 186 178 163 139 128 115 108 100 101 86 73 77 66 60 61 60 45
219 181 183 184 194 193 197 200 202 202 203 204 200 200 202 198 199 202 196 191 182 181 186 181 182 179 181 177 169 143 136 127 124 118 107 96 82 78 73 69 64 65 56
134 144 161 169 186 184 192 195 199 202 203 201 203 203 204 200 201 201 193 185 181 178 182 184 185 182 177 167 167 161 133 136 133 125 116 106 98 89 84 74 74 79 83
83 79 164 169 191 187 195 196 198 202 202 201 207 207 207 198 191 197 188 185 176 177 181 188 184 179 175 167 171 158 135 139 136 131 126 118 114 112 98 90 86 85 99
55 56 51 92 198 195 197 199 196 200 197 196 215 220 209 206 197 191 192 185 175 179 176 174 178 180 177 173 169 162 148 148 138 136 139 128 139 138 127 94 86 97 84
46 39 34 23 350 201 204 198 194 196 191 192 206 207 207 204 203 190 193 186 176 171 170 171 176 182 175 179 177 166 157 153 158 155 138 128 120 117 109 101 104 98 83
17 7 358 24 14 216 205 198 195 194 197 203 211 185 194 199 201 200 193 186 177 170 173 172 175 180 173 192 180 161 166 167 170 160 153 151 150 135 128 109 104 91 74
5 2 357 358 352 335 211 201 197 206 212 209 220 200 197 200 195 195 191 184 180 174 179 176 177 174 175 182 178 167 173 174 172 165 161 158 153 153 154 155 142 109 141
14 357 340 340 322 295 250 207 200 204 211 217 215 205 200 195 185 186 191 185 174 172 185 179 176 176 180 184 178 167 175 173 170 170 173 168 165 182 178 186 122 67 127
5 353 336 296 299 279 223 210 213 213 217 217 213 208 195 189 186 181 173 160 170 177 186 183 180 179 180 181 178 169 177 177 177 182 186 182 189 207 215 247 267 261 45
349 359 5 35 345 246 232 237 236 233 224 222 215 209 186 178 172 155 145 143 98 139 196 186 186 186 182 182 182 175 188 185 191 194 197 204 206 214 224 245 262 274 291
339 340 344 350 340 234 243 260 257 255 239 224 214 190 174 164 159 156 158 164 159 153 279 229 198 189 183 190 188 186 186 195 192 205 206 208 211 211 230 238 245 258 266
318 318 319 319 327 327 303 290 285 266 241 226 184 178 174 164 161 160 166 165 165 162 160 200 223 196 188 191 193 193 194 194 190 205 209 197 202 211 240 255 245 259 248
312 311 308 309 314 335 327 313 299 271 226 198 189 172 167 167 167 168 176 175 158 158 166 177 204 204 194 188 188 191 195 197 195 204 204 193 201 217 234 248 245 237 254
312 315 304 297 298 320 324 325 308 249 214 194 186 181 179 177 178 181 185 188 184 178 182 184 174 183 197 192 185 185 188 193 195 194 194 202 216 224 223 224 238 245 247
308 305 304 294 298 315 319 327 302 197 202 190 192 192 190 190 185 169 167 183 189 189 193 189 182 184 186 186 189 180 181 186 189 193 202 212 217 225 230 237 244 244 245